Starlink 3640

operational
NORAD ID: 51988 Int'l Des: 2022-025 Owner: SPXS Country: US Constellation: starlink
LEOCIRCULAR

Starlink 3640について

説明を読み込み中...

リアルタイム位置

3D地球を読み込み中...

次回通過

高度履歴

Altitude vs Time

uPlot chart will show altitude changes over time

軌道要素

1 51988U 22025AJ 25259.28618023 -.00000215 00000-0 45855-5 0 9996
2 51988 53.2164 102.0499 0001320 90.0614 270.0529 15.08843859194735
Epoch: Sep 16, 2025 • Age: 19 hours

現在のステータス

高度 559.1 km
速度 7.58 km/s
衛星直下点 -53.10°S, 18.6°W
打ち上げ日 Mar 9, 2022
運用期間 3.5 years
タイプ internet

技術仕様

分類 Payload
質量 297.00 kg
乾燥質量 275.00 kg
総質量 297.00 kg
長さ 0.20 m
直径 2.80 m
スパン 9.00 m
形状 Box + pan
製造者 SPXS
バスタイプ Starlink
フェーズステータス In Orbit
所有者/国 SPXS/US

大規模コンステレーション

Loading constellations...